Regional Weather Roundup
Issued by NWS

Home | Current Version | Previous Version | Graphics & Text | Print | Product List | Glossary On
Versions: 1 2 3 4 5 6 7 8 9 10 11 12 13 14 15 16 17 18 19 20 21 22 23 24 25 26 27 28 29 30 31 32 33 34 35 36 37 38 39 40 41 42 43 44 45 46 47 48 49 50
000
ASUS45 KCYS 231910
RWRWY

WYOMING REGIONAL WEATHER ROUNDUP
NATIONAL WEATHER SERVICE CHEYENNE WY
100 PM MDT MON MAY 23 2016

NOTE:  "FAIR" INDICATES FEW OR NO CLOUDS BELOW 12,000 FEET
WITH NO SIGNIFICANT WEATHER AND/OR OBSTRUCTIONS TO VISIBILITY.

WYZ001-232000-
YELLOWSTONE NATIONAL PARK

CITY           SKY/WX    TMP DP  RH WIND       PRES   REMARKS
LK YELLOWSTONE   N/A     38  26  62 VRB7      29.95S WCI  33
W YELLOWSTONE  NOT AVBL

$$
WYZ002>013-054>058-071-098>099-232000-
NORTHERN WYOMING

CITY           SKY/WX    TMP DP  RH WIND       PRES   REMARKS
JACKSON        PTSUNNY   46  28  49 W17G25    29.92F
CODY           FAIR      57  27  30 W16G23    29.82F
GREYBULL       PTSUNNY   64  20  18 W9G20     29.77F
WORLAND        FAIR      64  19  17 VRB6      29.79F
SHERIDAN       PTSUNNY   66  27  23 N12       29.74F
BUFFALO        FAIR      63  28  26 NW8       29.78S
GILLETTE       FAIR      66  23  19 SW15G29   29.75F
HULETT         FAIR      66  27  22 SW18G28   29.76F
NEWCASTLE      FAIR      66  19  16 W9G23     29.80F

$$
WYZ014>020-022>026-101>103-232000-
CENTRAL WYOMING

CITY           SKY/WX    TMP DP  RH WIND       PRES   REMARKS
BIG PINEY      PTSUNNY   50  24  36 NW20      29.95F
PINEDALE       LGT RAIN  46  27  46 SW13G24   29.95F
DUBOIS         MOCLDY    50  16  25 NW28G36   29.88F
LANDER         FAIR      62  21  20 NW15G26   29.83F
RIVERTON       FAIR      61  21  21 SW15      29.84F
CASPER         FAIR      60  24  25 SW25G35   29.84F
DOUGLAS        FAIR      65  28  24 W18G25    29.84F

$$
WYZ021-027>030-104>119-232000-
SOUTHERN WYOMING

CITY           SKY/WX    TMP DP  RH WIND       PRES   REMARKS
EVANSTON       CLOUDY    48  31  51 SW8       29.98S
KEMMERER         N/A     50  30  46 W23G33    29.98S
FORT BRIDGER   CLEAR     55  28  35 W15G22    29.99F
ROCK SPRINGS   FAIR      54  25  32 SW8       29.96F
DIXON          FAIR      58  30  33 NW7       29.98F
RAWLINS        FAIR      56  20  24 SW16G24   29.95F
SARATOGA       FAIR      57  23  26 W15G24    29.96F
LARAMIE        PTSUNNY   56  20  24 W12       29.93F
CHEYENNE       FAIR      63  36  36 SW21G29   29.90F
TORRINGTON     FAIR      69  27  20 W17       29.82F
PINE BLUFFS    FAIR      64  36  34 S10G16    29.89F

$$



USA.gov is the U.S. government's official web portal to all federal, state and local government web resources and services.